EN

Hourly Weather Novoul'yanovsk

Today, 16 May, Sunday

Time Temperature Precipitation Wind Pressure Humidity
00:00 +20°C° 0 mm 4 mps 756 mmHg 51%
01:00 +20°C° 0 mm 4 mps 756 mmHg 52%
02:00 +20°C° 0 mm 4 mps 756 mmHg 52%
03:00 +19°C° 0 mm 4 mps 756 mmHg 53%
04:00 +20°C° 0 mm 4 mps 756 mmHg 55%
05:00 +20°C° 0 mm 4 mps 756 mmHg 57%
06:00 +20°C° 0 mm 4 mps 756 mmHg 58%
07:00 +22°C° 0 mm 4 mps 756 mmHg 53%
08:00 +25°C° 0 mm 5 mps 756 mmHg 47%
09:00 +26°C° 0 mm 5 mps 756 mmHg 41%
10:00 +27°C° 0 mm 6 mps 756 mmHg 38%
11:00 +28°C° 0 mm 6 mps 756 mmHg 35%
12:00 +29°C° 0 mm 7 mps 756 mmHg 32%
13:00 +29°C° 0 mm 6 mps 756 mmHg 33%
14:00 +29°C° 0 mm 6 mps 756 mmHg 34%
15:00 +29°C° 0 mm 5 mps 756 mmHg 34%
16:00 +28°C° 0 mm 4 mps 756 mmHg 39%
17:00 +27°C° 0 mm 4 mps 756 mmHg 44%
18:00 +26°C° 0 mm 3 mps 756 mmHg 48%
19:00 +25°C° 0 mm 3 mps 756 mmHg 50%
20:00 +23°C° 0 mm 2 mps 756 mmHg 51%
21:00 +21°C° 0 mm 2 mps 756 mmHg 52%
22:00 +21°C° 0 mm 2 mps 756 mmHg 53%
23:00 +20°C° 0 mm 2 mps 756 mmHg 54%

Tomorrow, 17 May, Monday

Time Temperature Precipitation Wind Pressure Humidity
00:00 +21°C° 0 mm 1 mps 756 mmHg 55%
01:00 +19°C° 0 mm 2 mps 756 mmHg 56%
02:00 +19°C° 0 mm 2 mps 756 mmHg 57%
03:00 +18°C° 0 mm 2 mps 756 mmHg 58%
04:00 +20°C° 0 mm 1 mps 757 mmHg 58%
05:00 +21°C° 0 mm 1 mps 757 mmHg 58%
06:00 +21°C° 0 mm 1 mps 757 mmHg 59%
07:00 +23°C° 0 mm 1 mps 757 mmHg 54%
08:00 +25°C° 0 mm 2 mps 757 mmHg 50%
09:00 +26°C° 0 mm 2 mps 757 mmHg 46%
10:00 +27°C° 0 mm 3 mps 757 mmHg 43%
11:00 +28°C° 0 mm 3 mps 757 mmHg 40%
12:00 +29°C° 0 mm 3 mps 757 mmHg 38%
13:00 +30°C° 0 mm 3 mps 757 mmHg 34%
14:00 +30°C° 0 mm 3 mps 757 mmHg 31%
15:00 +31°C° 0 mm 3 mps 757 mmHg 28%
16:00 +30°C° 0 mm 3 mps 757 mmHg 33%
17:00 +29°C° 0 mm 2 mps 757 mmHg 38%
18:00 +28°C° 0 mm 2 mps 757 mmHg 43%
19:00 +26°C° 0 mm 2 mps 757 mmHg 43%
20:00 +25°C° 0 mm 1 mps 757 mmHg 44%
21:00 +24°C° 0 mm 1 mps 757 mmHg 44%
22:00 +23°C° 0 mm 2 mps 757 mmHg 45%
23:00 +21°C° 0 mm 2 mps 757 mmHg 46%

Day after tomorrow, 18 May, Tuesday

Time Temperature Precipitation Wind Pressure Humidity
00:00 +20°C° 0 mm 2 mps 757 mmHg 47%
01:00 +20°C° 0 mm 2 mps 757 mmHg 48%
02:00 +20°C° 0 mm 2 mps 757 mmHg 48%
03:00 +19°C° 0 mm 2 mps 757 mmHg 49%
04:00 +21°C° 0 mm 1 mps 757 mmHg 49%
05:00 +21°C° 0 mm 1 mps 757 mmHg 50%
06:00 +22°C° 0 mm 1 mps 757 mmHg 51%
07:00 +23°C° 0 mm 2 mps 757 mmHg 47%
08:00 +25°C° 0 mm 2 mps 757 mmHg 43%
09:00 +26°C° 0 mm 3 mps 757 mmHg 40%
10:00 +27°C° 0 mm 3 mps 757 mmHg 37%
11:00 +28°C° 0 mm 3 mps 757 mmHg 34%
12:00 +29°C° 0 mm 3 mps 757 mmHg 31%
13:00 +29°C° 0 mm 4 mps 756 mmHg 30%
14:00 +30°C° 0 mm 4 mps 756 mmHg 29%
15:00 +30°C° 0 mm 4 mps 756 mmHg 29%
16:00 +29°C° 0 mm 3 mps 756 mmHg 34%
17:00 +28°C° 0 mm 3 mps 756 mmHg 38%
18:00 +27°C° 0 mm 3 mps 756 mmHg 43%
19:00 +25°C° 0 mm 3 mps 756 mmHg 44%
20:00 +24°C° 0 mm 3 mps 756 mmHg 44%
21:00 +21°C° 0 mm 3 mps 756 mmHg 44%
22:00 +21°C° 0 mm 3 mps 756 mmHg 47%
23:00 +20°C° 0 mm 4 mps 756 mmHg 49%

19 May, Wednesday

Time Temperature Precipitation Wind Pressure Humidity
00:00 +19°C° 0 mm 4 mps 756 mmHg 52%
01:00 +19°C° 0 mm 4 mps 756 mmHg 57%
02:00 +18°C° 0 mm 3 mps 756 mmHg 62%
03:00 +18°C° 0 mm 3 mps 756 mmHg 67%
04:00 +18°C° 0 mm 3 mps 756 mmHg 67%
05:00 +19°C° 0 mm 3 mps 756 mmHg 67%
06:00 +20°C° 0 mm 3 mps 756 mmHg 68%
07:00 +21°C° 0 mm 4 mps 756 mmHg 62%
08:00 +23°C° 0 mm 4 mps 756 mmHg 57%
09:00 +26°C° 0 mm 5 mps 755 mmHg 51%
10:00 +27°C° 0 mm 5 mps 755 mmHg 48%
11:00 +28°C° 0 mm 5 mps 755 mmHg 46%
12:00 +29°C° 0 mm 5 mps 755 mmHg 43%
13:00 +29°C° 0 mm 5 mps 755 mmHg 41%
14:00 +29°C° 0 mm 5 mps 755 mmHg 39%
15:00 +30°C° 0 mm 5 mps 754 mmHg 37%
16:00 +29°C° 0 mm 5 mps 754 mmHg 43%
17:00 +27°C° 0 mm 5 mps 754 mmHg 49%
18:00 +26°C° 0 mm 6 mps 754 mmHg 55%
19:00 +23°C° 0 mm 6 mps 754 mmHg 59%
20:00 +22°C° 0 mm 6 mps 754 mmHg 63%
21:00 +20°C° 0 mm 6 mps 754 mmHg 68%
22:00 +20°C° 0 mm 6 mps 754 mmHg 68%
23:00 +20°C° 0 mm 6 mps 754 mmHg 67%

20 May, Thursday

Time Temperature Precipitation Wind Pressure Humidity
00:00 +20°C° 0 mm 5 mps 754 mmHg 67%
01:00 +20°C° 0 mm 5 mps 754 mmHg 66%
02:00 +20°C° 0 mm 5 mps 754 mmHg 64%
03:00 +20°C° 0 mm 5 mps 754 mmHg 62%
04:00 +20°C° 0 mm 5 mps 754 mmHg 64%
05:00 +20°C° 0 mm 6 mps 754 mmHg 65%
06:00 +20°C° 0 mm 6 mps 753 mmHg 67%
07:00 +21°C° 0 mm 7 mps 753 mmHg 64%
08:00 +23°C° 0 mm 8 mps 753 mmHg 61%
09:00 +24°C° 0 mm 9 mps 753 mmHg 58%
10:00 +26°C° 0 mm 9 mps 753 mmHg 55%
11:00 +27°C° 0 mm 8 mps 753 mmHg 52%
12:00 +27°C° 0 mm 8 mps 754 mmHg 48%
13:00 +26°C° 0.2 mm 8 mps 754 mmHg 54%
14:00 +24°C° 0.2 mm 7 mps 754 mmHg 59%
15:00 +23°C° 0.2 mm 6 mps 754 mmHg 64%
16:00 +22°C° 0.5 mm 6 mps 755 mmHg 70%
17:00 +21°C° 0.5 mm 5 mps 755 mmHg 75%
18:00 +20°C° 0.5 mm 4 mps 756 mmHg 81%
19:00 +19°C° 0 mm 4 mps 756 mmHg 82%
20:00 +18°C° 0 mm 3 mps 757 mmHg 83%
21:00 +16°C° 0 mm 2 mps 757 mmHg 85%
22:00 +16°C° 0.1 mm 1 mps 757 mmHg 85%
23:00 +16°C° 0.1 mm 1 mps 758 mmHg 85%

21 May, Friday

Time Temperature Precipitation Wind Pressure Humidity
00:00 +16°C° 0.1 mm 1 mps 758 mmHg 85%
01:00 +16°C° 0 mm 1 mps 758 mmHg 85%
02:00 +15°C° 0 mm 0 mps 758 mmHg 85%
03:00 +15°C° 0 mm 0 mps 759 mmHg 85%
04:00 +16°C° 0.1 mm 1 mps 759 mmHg 85%
05:00 +15°C° 0.1 mm 2 mps 758 mmHg 86%
06:00 +14°C° 0.1 mm 3 mps 758 mmHg 86%
07:00 +16°C° 0.4 mm 2 mps 758 mmHg 86%
08:00 +16°C° 0.4 mm 2 mps 758 mmHg 86%
09:00 +17°C° 0.4 mm 2 mps 758 mmHg 85%
10:00 +18°C° 0.4 mm 2 mps 758 mmHg 82%
11:00 +20°C° 0.4 mm 3 mps 757 mmHg 79%
12:00 +21°C° 0.4 mm 3 mps 757 mmHg 75%
13:00 +22°C° 0 mm 3 mps 757 mmHg 71%
14:00 +24°C° 0 mm 3 mps 756 mmHg 67%
15:00 +25°C° 0 mm 3 mps 756 mmHg 62%
16:00 +24°C° 0.2 mm 3 mps 756 mmHg 68%
17:00 +22°C° 0.2 mm 3 mps 756 mmHg 74%
18:00 +21°C° 0.2 mm 3 mps 756 mmHg 80%
19:00 +20°C° 0.5 mm 3 mps 756 mmHg 85%
20:00 +19°C° 0.5 mm 3 mps 756 mmHg 90%
21:00 +17°C° 0.5 mm 2 mps 756 mmHg 94%
22:00 +17°C° 0.1 mm 2 mps 756 mmHg 95%
23:00 +17°C° 0.1 mm 2 mps 756 mmHg 96%
Show more

We Need Your Consent

Meteoprog and our Service Providers may store and access personal data such as cookies, device identifiers or other similar technologies on your device and process such data to personalise content and ads, as well as provide social media features and to analyse the traffic.

  • Store and/or access information on your device

    Cookies, device identifiers or other information can be stored or accessed on your device for the purposes indicated above.

  • Personalised ads and content, ad and content measurement, audience insights, and products development

    Ads and content can be personalised based on a profile. More data can be added to better personalise ads and content. Ad and content performance can be measured. Insights about the audience who saw the ads and content can be derived. Such data can be used to develop or improve user’s experience, systems and software.

By clicking ‘I Agree’ you will allow the use of indicated cookies, device identifiers, web beacons or other similar technologies. Your settings can be changed in the browser on your device.

For certain purposes, legitimate interests may be relied on, rather than consent. You can read more about this in our Privacy and Cookie Policy.